EW0435 Weather Reports


Display with metric or nautical units.
time (UTC)temp
F
wind
direction
speed
MPH
gust
MPH
rain 1hr
in
rain 24hr
in
rain mn
in
humidity
%
barometer
mb
20260502164003 64 159 0.0 0.0 0.00 0.00 0.00 34 1021.2
20260502163504 64 139 0.0 0.0 0.00 0.00 0.00 35 1021.1
20260502163004 64 150 0.0 0.0 0.00 0.00 0.00 38 1021.1
20260502162504 63 156 0.0 0.0 0.00 0.00 0.00 38 1021.1
20260502161504 62 162 0.0 1.0 0.00 0.00 0.00 44 1021.1
20260502161004 61 127 0.0 0.0 0.00 0.00 0.00 53 1021.1
20260502160504 60 160 0.0 1.0 0.00 0.00 0.00 55 1021.1
20260502152004 56 152 0.0 0.0 0.00 0.00 0.00 62 1021.2
20260502151504 55 157 0.0 0.0 0.00 0.00 0.00 63 1021.1
20260502151004 55 157 0.0 0.0 0.00 0.00 0.00 64 1021.2
20260502150504 54 156 0.0 0.0 0.00 0.00 0.00 66 1021.2
20260502123504 49 233 0.0 0.0 0.00 0.00 0.00 60 1020.9
20260502123005 49 233 0.0 0.0 0.00 0.00 0.00 60 1020.9
20260502122504 49 233 0.0 0.0 0.00 0.00 0.00 60 1020.8
20260502121504 49 233 0.0 0.0 0.00 0.00 0.00 60 1020.8
20260502121005 49 233 0.0 0.0 0.00 0.00 0.00 60 1020.8
20260502120504 49 233 0.0 0.0 0.00 0.00 0.00 60 1020.9
20260502115504 49 233 0.0 0.0 0.00 0.00 0.00 60 1020.8
20260502113004 50 233 0.0 0.0 0.00 0.00 0.00 55 1020.9
20260502112504 51 233 0.0 0.0 0.00 0.00 0.00 54 1020.8
20260502112004 50 233 0.0 0.0 0.00 0.00 0.00 54 1020.8
20260502111504 50 233 0.0 0.0 0.00 0.00 0.00 54 1020.8
20260502111004 50 233 0.0 0.0 0.00 0.00 0.00 56 1020.9
20260502110504 50 233 0.0 0.0 0.00 0.00 0.00 56 1020.9
20260502110004 49 233 0.0 0.0 0.00 0.00 0.00 58 1020.9
20260502105503 49 233 0.0 0.0 0.00 0.00 0.00 58 1021.0
20260502105004 49 233 0.0 0.0 0.00 0.00 0.00 57 1020.9
20260502104504 49 233 0.0 0.0 0.00 0.00 0.00 57 1021.0
20260502103504 50 233 0.0 0.0 0.00 0.00 0.00 55 1020.9
20260502103004 50 233 0.0 0.0 0.00 0.00 0.00 54 1021.0
20260502102504 51 233 0.0 0.0 0.00 0.00 0.00 52 1021.0
20260502101504 52 233 0.0 0.0 0.00 0.00 0.00 49 1020.9
20260502101005 53 233 0.0 0.0 0.00 0.00 0.00 47 1020.9
20260502091504 53 233 0.0 0.0 0.00 0.00 0.00 46 1020.9
20260502091004 52 233 0.0 0.0 0.00 0.00 0.00 47 1020.9
20260502090504 52 233 0.0 0.0 0.00 0.00 0.00 48 1021.0
20260502071504 53 233 0.0 0.0 0.00 0.00 0.00 51 1021.3
20260502071004 53 233 0.0 0.0 0.00 0.00 0.00 51 1021.3
20260502070504 53 233 0.0 0.0 0.00 0.00 0.00 51 1021.3
20260502070004 54 233 0.0 0.0 0.00 0.00 0.00 50 1021.3
20260502065504 55 233 0.0 0.0 0.00 0.00 0.00 49 1021.3
20260502065004 55 233 0.0 0.0 0.00 0.00 0.00 47 1021.3
20260502064504 55 233 0.0 0.0 0.00 0.00 0.00 48 1021.3
20260502064004 55 233 0.0 0.0 0.00 0.00 0.00 48 1021.3
20260502062004 55 233 0.0 0.0 0.00 0.00 0.00 48 1021.3
20260502061505 55 233 0.0 0.0 0.00 0.00 0.00 49 1021.3
20260502061004 56 233 0.0 0.0 0.00 0.00 0.00 47 1021.2
20260502060505 58 24 0.0 0.0 0.00 0.00 0.00 44 1021.3
20260502055004 58 24 0.0 0.0 0.00 0.00 0.00 43 1021.3
20260502054504 58 24 0.0 0.0 0.00 0.00 0.00 44 1021.3
20260502054004 58 24 0.0 0.0 0.00 0.00 0.00 45 1021.4
20260502053504 58 25 0.0 0.0 0.00 0.00 0.00 43 1021.4
20260502053004 58 25 0.0 0.0 0.00 0.00 0.00 43 1021.4
20260502052505 58 25 0.0 0.0 0.00 0.00 0.00 42 1021.4
20260502052005 58 26 0.0 0.0 0.00 0.00 0.00 42 1021.4
20260502051505 59 25 0.0 0.0 0.00 0.00 0.00 40 1021.4
20260502051005 59 25 0.0 0.0 0.00 0.00 0.00 39 1021.5
20260502050504 59 25 0.0 0.0 0.00 0.00 0.00 38 1021.4
20260502050004 59 25 0.0 0.0 0.00 0.00 0.00 39 1021.4
20260502045505 59 25 0.0 0.0 0.00 0.00 0.00 40 1021.4
20260502044504 57 25 0.0 0.0 0.00 0.00 0.00 43 1021.4
20260502044004 56 26 0.0 0.0 0.00 0.00 0.00 46 1021.4
20260502043504 56 26 0.0 0.0 0.00 0.00 0.00 47 1021.5
20260502043004 58 26 0.0 0.0 0.00 0.00 0.00 44 1021.5
20260502042504 58 26 0.0 0.0 0.00 0.00 0.00 40 1021.4
20260502041504 60 27 0.0 0.0 0.00 0.00 0.00 38 1021.4
20260502040005 60 27 0.0 0.0 0.00 0.00 0.00 41 1021.3
20260502035504 60 27 0.0 0.0 0.00 0.00 0.00 40 1021.2
20260502035004 60 27 0.0 0.0 0.00 0.00 0.00 41 1021.2
20260502034504 61 27 0.0 0.0 0.00 0.00 0.00 42 1021.2
20260502033504 61 27 0.0 0.0 0.00 0.00 0.00 42 1021.1
20260502033004 62 27 0.0 0.0 0.00 0.00 0.00 41 1021.1
20260502032504 63 27 0.0 0.0 0.00 0.00 0.00 42 1021.0
20260502032005 63 27 0.0 0.0 0.00 0.00 0.00 39 1020.9
20260502031504 63 27 0.0 0.0 0.00 0.00 0.00 36 1020.9
20260502031004 63 27 0.0 0.0 0.00 0.00 0.00 38 1020.9
20260502030504 63 27 0.0 0.0 0.00 0.00 0.00 38 1020.9
20260502030004 62 27 0.0 0.0 0.00 0.00 0.00 41 1020.8
20260502025505 62 27 0.0 0.0 0.00 0.00 0.00 39 1020.8
20260502025004 62 27 0.0 0.0 0.00 0.00 0.00 38 1020.7
20260502024504 62 27 0.0 0.0 0.00 0.00 0.00 40 1020.8
20260502024004 62 27 0.0 0.0 0.00 0.00 0.00 41 1020.8
20260502023504 62 27 0.0 0.0 0.00 0.00 0.00 41 1020.7
20260502023004 62 27 0.0 0.0 0.00 0.00 0.00 42 1020.7
20260502022504 63 27 0.0 0.0 0.00 0.00 0.00 43 1020.7
20260502022004 63 27 0.0 0.0 0.00 0.00 0.00 43 1020.7
20260502021504 63 27 0.0 0.0 0.00 0.00 0.00 43 1020.7
20260502021004 63 27 0.0 0.0 0.00 0.00 0.00 44 1020.7
20260502020504 63 27 0.0 0.0 0.00 0.00 0.00 47 1020.7
20260502020004 63 27 0.0 0.0 0.00 0.00 0.00 47 1020.8
20260502015504 64 27 0.0 0.0 0.00 0.00 0.00 47 1020.8
20260502015004 64 26 0.0 0.0 0.00 0.00 0.00 47 1020.8
20260502014505 64 59 0.0 0.0 0.00 0.00 0.00 47 1020.8
20260502014004 64 58 0.0 0.0 0.00 0.00 0.00 48 1020.9
20260502013504 64 63 0.0 0.0 0.00 0.00 0.00 50 1020.9
20260502013004 64 62 0.0 0.0 0.00 0.00 0.00 49 1020.9
20260502011504 65 66 0.0 0.0 0.00 0.00 0.00 47 1020.9
20260502011004 65 66 0.0 0.0 0.00 0.00 0.00 45 1020.9
20260502010504 66 67 0.0 0.0 0.00 0.00 0.00 46 1021.0
20260502010004 66 67 0.0 0.0 0.00 0.00 0.00 42 1021.0
20260502005004 67 68 0.0 0.0 0.00 0.00 0.00 42 1021.0
20260502004503 68 62 0.0 0.0 0.00 0.00 0.00 40 1021.1
20260502004004 68 47 0.0 0.0 0.00 0.00 0.00 37 1021.1
20260502003504 68 49 0.0 0.0 0.00 0.00 0.00 37 1021.1
20260502003004 68 51 0.0 0.0 0.00 0.00 0.00 37 1021.2
20260502002003 68 66 0.0 0.0 0.00 0.00 0.00 39 1021.2
20260502001504 69 59 0.0 0.0 0.00 0.00 0.00 39 1021.2
20260502001004 69 52 0.0 0.0 0.00 0.00 0.00 36 1021.3
20260502000504 69 35 0.0 0.0 0.00 0.00 0.00 35 1021.3
20260502000004 68 29 0.0 1.0 0.00 0.00 0.00 36 1021.3
20260501235004 68 66 0.0 1.0 0.00 0.00 0.00 40 1021.4
20260501234504 68 58 0.0 0.0 0.00 0.00 0.00 42 1021.3
20260501234003 68 65 0.0 0.0 0.00 0.00 0.00 40 1021.4
20260501233504 68 63 0.0 0.0 0.00 0.00 0.00 36 1021.4
20260501233004 69 64 0.0 0.0 0.00 0.00 0.00 36 1021.5
20260501232503 70 45 0.0 0.0 0.00 0.00 0.00 36 1021.5
20260501232004 69 62 0.0 0.0 0.00 0.00 0.00 36 1021.6
20260501231504 69 73 0.0 0.0 0.00 0.00 0.00 36 1021.6
20260501231004 69 50 0.0 0.0 0.00 0.00 0.00 38 1021.6
20260501230504 69 60 0.0 0.0 0.00 0.00 0.00 37 1021.7
20260501230004 69 62 0.0 0.0 0.00 0.00 0.00 37 1021.8
20260501225504 70 30 0.0 0.0 0.00 0.00 0.00 35 1021.8
20260501225004 69 49 0.0 0.0 0.00 0.00 0.00 36 1021.8
20260501224503 68 43 0.0 0.0 0.00 0.00 0.00 36 1021.9
20260501224004 68 49 0.0 6.0 0.00 0.00 0.00 37 1022.0
20260501223503 68 63 0.0 2.0 0.00 0.00 0.00 35 1022.0
20260501223003 69 76 0.0 2.0 0.00 0.00 0.00 39 1022.0
20260501222004 70 51 0.0 0.0 0.00 0.00 0.00 35 1022.2
20260501221503 68 41 0.0 1.0 0.00 0.00 0.00 35 1022.2
20260501221004 68 77 0.0 1.0 0.00 0.00 0.00 37 1022.2
20260501220003 69 73 0.0 1.0 0.00 0.00 0.00 36 1022.3
20260501215503 71 73 0.0 1.0 0.00 0.00 0.00 36 1022.3
20260501215004 71 51 0.0 0.0 0.00 0.00 0.00 37 1022.4
20260501214504 70 14 0.0 1.0 0.00 0.00 0.00 34 1022.4
20260501213504 70 56 0.0 1.0 0.00 0.00 0.00 35 1022.5
20260501213004 70 5 0.0 1.0 0.00 0.00 0.00 34 1022.6
20260501212504 70 14 0.0 1.0 0.00 0.00 0.00 35 1022.6
20260501212004 70 58 1.0 3.0 0.00 0.00 0.00 36 1022.6
20260501211504 70 33 0.0 1.0 0.00 0.00 0.00 34 1022.6
20260501211003 71 68 0.0 3.0 0.00 0.00 0.00 36 1022.6
20260501210504 69 41 0.0 0.0 0.00 0.00 0.00 38 1022.6
20260501210004 69 69 0.0 0.0 0.00 0.00 0.00 36 1022.6
20260501205004 70 59 0.0 1.0 0.00 0.00 0.00 39 1022.6
20260501204504 70 32 1.0 3.0 0.00 0.00 0.00 37 1022.7
20260501204004 70 35 0.0 2.0 0.00 0.00 0.00 39 1022.6
20260501202504 68 54 0.0 0.0 0.00 0.00 0.00 38 1022.7
20260501201004 69 1 0.0 0.0 0.00 0.00 0.00 35 1022.7
20260501200504 68 28 0.0 1.0 0.00 0.00 0.00 36 1022.8
20260501200004 67 55 0.0 1.0 0.00 0.00 0.00 41 1022.8
20260501195004 67 90 1.0 3.0 0.00 0.00 0.00 39 1022.8
20260501194004 68 40 0.0 6.0 0.00 0.00 0.00 41 1022.9
20260501193503 67 68 0.0 2.0 0.00 0.00 0.00 40 1022.9
20260501193004 67 55 0.0 3.0 0.00 0.00 0.00 42 1022.9
20260501192505 66 66 0.0 3.0 0.00 0.00 0.00 44 1022.9
20260501192004 66 86 0.0 2.0 0.00 0.00 0.00 40 1022.9
20260501191504 66 81 1.0 10.0 0.00 0.00 0.00 44 1022.9
20260501191004 66 60 0.0 2.0 0.00 0.00 0.00 42 1023.0
20260501190504 66 83 1.0 5.0 0.00 0.00 0.00 41 1023.0
20260501185504 65 98 0.0 1.0 0.00 0.00 0.00 42 1023.0
20260501185003 64 117 0.0 3.0 0.00 0.00 0.00 36 1023.1
20260501184504 65 126 1.0 3.0 0.00 0.00 0.00 36 1023.1
20260501183504 65 116 0.0 0.0 0.00 0.00 0.00 39 1023.1
20260501183004 65 109 0.0 3.0 0.00 0.00 0.00 41 1023.2
20260501182504 64 119 0.0 2.0 0.00 0.00 0.00 36 1023.2
20260501182004 64 108 0.0 2.0 0.00 0.00 0.00 38 1023.2
20260501181504 64 101 0.0 3.0 0.00 0.00 0.00 37 1023.2
20260501180504 63 121 0.0 3.0 0.00 0.00 0.00 39 1023.3
20260501180003 63 139 2.0 3.0 0.00 0.00 0.00 39 1023.3
20260501175504 63 120 1.0 3.0 0.00 0.00 0.00 37 1023.3
20260501175004 63 108 0.0 2.0 0.00 0.00 0.00 39 1023.3
20260501174504 63 116 0.0 3.0 0.00 0.00 0.00 40 1023.3
20260501174005 63 125 0.0 3.0 0.00 0.00 0.00 40 1023.4
20260501173504 63 121 1.0 3.0 0.00 0.00 0.00 39 1023.3
20260501173004 63 123 1.0 5.0 0.00 0.00 0.00 42 1023.4
20260501172503 62 139 0.0 3.0 0.00 0.00 0.00 42 1023.3
20260501172004 62 94 0.0 3.0 0.00 0.00 0.00 44 1023.4
20260501171504 62 125 1.0 3.0 0.00 0.00 0.00 44 1023.4